W2IRT Weather Reports


Display with metric or nautical units.
time (UTC)temp
F
wind
direction
speed
MPH
gust
MPH
rain 1hr
in
rain 24hr
in
rain mn
in
humidity
%
barometer
mb
20260504032015 53 0.0 0.0 0.00 0.00 0.00 42 1012.0
20260504031530 53 0.0 0.0 0.00 0.00 0.00 42 1012.0
20260504031015 53 0.0 0.0 0.00 0.00 0.00 41 1011.9
20260504030520 53 0.0 0.0 0.00 0.00 0.00 41 1011.9
20260504030016 53 0.0 0.0 0.00 0.00 0.00 41 1012.0
20260504025515 53 0.0 0.0 0.00 0.00 0.00 41 1011.9
20260504025015 53 0.0 0.0 0.00 0.00 0.00 41 1011.9
20260504024515 53 0.0 0.0 0.00 0.00 0.00 41 1011.9
20260504024015 53 0.0 0.0 0.00 0.00 0.00 42 1012.0
20260504023515 53 0.0 0.0 0.00 0.00 0.00 40 1011.9
20260504023015 53 0.0 0.0 0.00 0.00 0.00 41 1011.9
20260504022515 53 0.0 0.0 0.00 0.00 0.00 40 1011.9
20260504022015 53 0.0 0.0 0.00 0.00 0.00 40 1011.9
20260504021515 53 0.0 0.0 0.00 0.00 0.00 43 1011.9
20260504021015 53 0.0 0.0 0.00 0.00 0.00 42 1011.9
20260504020515 53 0.0 0.0 0.00 0.00 0.00 41 1012.0
20260504020015 53 0.0 0.0 0.00 0.00 0.00 42 1011.9
20260504015515 53 0.0 0.0 0.00 0.00 0.00 43 1011.9
20260504015015 53 0.0 0.0 0.00 0.00 0.00 43 1011.8
20260504014515 53 0.0 0.0 0.00 0.00 0.00 44 1011.8
20260504014015 53 0.0 0.0 0.00 0.00 0.00 44 1011.7
20260504013515 53 0.0 0.0 0.00 0.00 0.00 44 1011.8
20260504013015 53 0.0 0.0 0.00 0.00 0.00 44 1011.6
20260504012515 54 0.0 0.0 0.00 0.00 0.00 44 1011.6
20260504012015 54 0.0 0.0 0.00 0.00 0.00 43 1011.6
20260504011515 54 0.0 0.0 0.00 0.00 0.00 43 1011.6
20260504011015 54 0.0 0.0 0.00 0.00 0.00 42 1011.5
20260504010515 55 0.0 0.0 0.00 0.00 0.00 42 1011.4
20260504010015 55 0.0 0.0 0.00 0.00 0.00 41 1011.4
20260504005517 55 0.0 0.0 0.00 0.00 0.00 39 1011.4
20260504005017 56 0.0 0.0 0.00 0.00 0.00 40 1011.2
20260504004517 56 0.0 0.0 0.00 0.00 0.00 39 1011.2
20260504004017 56 0.0 0.0 0.00 0.00 0.00 37 1011.2
20260504003517 57 0.0 0.0 0.00 0.00 0.00 37 1011.1
20260504003017 58 0.0 0.0 0.00 0.00 0.00 35 1011.0
20260504002517 58 0.0 0.0 0.00 0.00 0.00 34 1011.0
20260504002017 58 0.0 0.0 0.00 0.00 0.00 34 1010.9
20260504001517 59 0.0 0.0 0.00 0.00 0.00 31 1010.8
20260504001032 59 0.0 0.0 0.00 0.00 0.00 30 1010.7
20260504000517 60 0.0 0.0 0.00 0.00 0.00 31 1010.6
20260504000017 60 0.0 0.0 0.00 0.00 0.00 29 1010.6
20260503235517 60 0.0 2.0 0.00 0.00 0.00 29 1010.5
20260503235017 60 0.0 1.0 0.00 0.00 0.00 29 1010.5
20260503234517 60 0.0 2.0 0.00 0.00 0.00 28 1010.4
20260503234017 60 292 1.0 3.0 0.00 0.00 0.00 29 1010.4
20260503233517 60 0.0 2.0 0.00 0.00 0.00 28 1010.2
20260503233016 61 0.0 2.0 0.00 0.00 0.00 29 1010.2
20260503232516 61 292 1.0 4.0 0.00 0.00 0.00 30 1010.2
20260503232017 61 315 1.0 4.0 0.00 0.00 0.00 31 1010.2
20260503231516 61 292 2.0 4.0 0.00 0.00 0.00 26 1010.1
20260503231016 61 292 1.0 4.0 0.00 0.00 0.00 26 1010.2
20260503230516 61 292 2.0 3.0 0.00 0.00 0.00 25 1010.1
20260503230016 61 292 1.0 5.0 0.00 0.00 0.00 27 1010.0
20260503225517 61 0.0 2.0 0.00 0.00 0.00 28 1010.0
20260503225016 61 292 2.0 5.0 0.00 0.00 0.00 26 1009.9
20260503224516 61 315 2.0 7.0 0.00 0.00 0.00 25 1009.9
20260503224016 62 292 1.0 3.0 0.00 0.00 0.00 26 1009.8
20260503223517 62 315 1.0 3.0 0.00 0.00 0.00 27 1009.8
20260503223016 62 270 2.0 6.0 0.00 0.00 0.00 25 1009.8
20260503222517 62 270 1.0 4.0 0.00 0.00 0.00 25 1009.8
20260503222017 62 292 2.0 7.0 0.00 0.00 0.00 26 1009.9
20260503221516 62 270 3.0 6.0 0.00 0.00 0.00 25 1009.9
20260503221017 62 292 3.0 8.0 0.00 0.00 0.00 24 1010.0
20260503220516 62 292 1.0 4.0 0.00 0.00 0.00 25 1009.9
20260503220017 62 270 2.0 6.0 0.00 0.00 0.00 26 1009.8
20260503215516 62 292 2.0 5.0 0.00 0.00 0.00 25 1009.9
20260503215016 62 292 2.0 10.0 0.00 0.00 0.00 25 1010.0
20260503214516 62 270 3.0 9.0 0.00 0.00 0.00 24 1010.0
20260503214016 61 270 4.0 7.0 0.00 0.00 0.00 25 1009.9
20260503213517 61 0 3.0 6.0 0.00 0.00 0.00 24 1009.9
20260503213016 61 270 4.0 8.0 0.00 0.00 0.00 24 1009.9
20260503212516 61 270 3.0 7.0 0.00 0.00 0.00 24 1009.9
20260503212016 61 270 3.0 10.0 0.00 0.00 0.00 25 1009.9
20260503211516 61 270 5.0 11.0 0.00 0.00 0.00 24 1010.0
20260503211016 61 270 4.0 8.0 0.00 0.00 0.00 25 1009.9
20260503210532 61 270 3.0 8.0 0.00 0.00 0.00 25 1009.9
20260503210017 61 270 3.0 9.0 0.00 0.00 0.00 26 1009.9
20260503205516 60 292 4.0 10.0 0.00 0.00 0.00 25 1009.9
20260503205016 60 270 3.0 7.0 0.00 0.00 0.00 25 1009.9
20260503204516 60 270 4.0 7.0 0.00 0.00 0.00 26 1010.0
20260503204016 61 270 4.0 8.0 0.00 0.00 0.00 26 1010.0
20260503203516 60 270 3.0 7.0 0.00 0.00 0.00 26 1009.9
20260503203017 60 270 3.0 6.0 0.00 0.00 0.00 26 1010.0
20260503202516 60 270 4.0 9.0 0.00 0.00 0.00 26 1010.1
20260503202016 60 270 5.0 12.0 0.00 0.00 0.00 26 1010.1
20260503201516 60 270 4.0 9.0 0.00 0.00 0.00 27 1009.9
20260503201016 59 270 3.0 8.0 0.00 0.00 0.00 27 1010.1
20260503200516 59 315 3.0 8.0 0.00 0.00 0.00 31 1010.2
20260503200016 59 292 4.0 8.0 0.00 0.00 0.00 28 1010.2
20260503195516 59 292 3.0 6.0 0.00 0.00 0.00 27 1010.2
20260503195016 60 292 3.0 5.0 0.00 0.00 0.00 29 1010.2
20260503194516 59 270 3.0 7.0 0.00 0.00 0.00 29 1010.3
20260503194016 59 270 5.0 9.0 0.00 0.00 0.00 31 1010.4
20260503193516 59 270 4.0 7.0 0.00 0.00 0.00 30 1010.3
20260503193016 59 270 5.0 10.0 0.00 0.00 0.00 27 1010.5
20260503192516 59 270 4.0 10.0 0.00 0.00 0.00 27 1010.5
20260503192016 58 270 5.0 9.0 0.00 0.00 0.00 29 1010.5
20260503191516 58 0 5.0 14.0 0.00 0.00 0.00 32 1010.5
20260503191016 58 292 3.0 7.0 0.00 0.00 0.00 28 1010.5
20260503190516 58 270 3.0 7.0 0.00 0.00 0.00 30 1010.6
20260503190016 58 292 4.0 11.0 0.00 0.00 0.00 29 1010.5
20260503185516 58 270 4.0 10.0 0.00 0.00 0.00 30 1010.6
20260503185016 58 315 4.0 8.0 0.00 0.00 0.00 32 1010.8
20260503184516 58 0 4.0 12.0 0.00 0.00 0.00 30 1010.7
20260503184016 57 270 4.0 12.0 0.00 0.00 0.00 29 1010.8
20260503183516 57 270 4.0 9.0 0.00 0.00 0.00 31 1010.8
20260503183016 57 292 4.0 14.0 0.00 0.00 0.00 32 1010.8
20260503182516 57 270 4.0 9.0 0.00 0.00 0.00 30 1010.8
20260503182016 57 270 4.0 7.0 0.00 0.00 0.00 31 1010.8
20260503181516 56 270 4.0 7.0 0.00 0.00 0.00 32 1010.8
20260503181016 57 270 3.0 8.0 0.00 0.00 0.00 31 1010.9
20260503180516 57 292 4.0 10.0 0.00 0.00 0.00 31 1011.0
20260503180031 57 315 3.0 7.0 0.00 0.00 0.00 38 1010.9
20260503175516 56 292 4.0 9.0 0.00 0.00 0.00 34 1011.1
20260503175016 56 0 3.0 9.0 0.00 0.00 0.00 33 1011.1
20260503174516 56 292 3.0 8.0 0.00 0.00 0.00 37 1011.2
20260503174016 55 270 4.0 9.0 0.00 0.00 0.00 36 1011.3
20260503173516 55 270 4.0 8.0 0.00 0.00 0.00 37 1011.3
20260503173016 54 270 4.0 8.0 0.00 0.00 0.00 36 1011.3
20260503172516 54 0 4.0 11.0 0.00 0.00 0.00 37 1011.3
20260503172016 54 0 4.0 7.0 0.00 0.00 0.00 35 1011.3
20260503171516 54 315 4.0 12.0 0.00 0.00 0.00 35 1011.5
20260503171016 54 292 3.0 6.0 0.00 0.00 0.00 38 1011.4
20260503170516 54 247 3.0 8.0 0.00 0.00 0.00 38 1011.3
20260503150515 52 315 4.0 13.0 0.00 0.00 0.00 36 1011.9
20260503131015 49 292 3.0 7.0 0.00 0.00 0.00 50 1011.7
20260503130515 49 0 3.0 6.0 0.00 0.00 0.00 49 1011.8
20260503110515 46 315 1.0 3.0 0.00 0.00 0.00 55 1011.3
20260503081516 48 337 2.0 4.0 0.00 0.00 0.00 52 1010.3
20260503081017 48 292 2.0 4.0 0.00 0.00 0.00 51 1010.3
20260503080516 48 337 1.0 3.0 0.00 0.00 0.00 50 1010.3
20260503072516 48 292 1.0 4.0 0.00 0.00 0.00 52 1010.1
20260503072016 48 0 1.0 5.0 0.00 0.00 0.00 51 1010.1
20260503071517 48 0.0 2.0 0.00 0.00 0.00 53 1010.1
20260503071016 48 0.0 1.0 0.00 0.00 0.00 52 1010.1
20260503070516 48 0.0 0.0 0.00 0.00 0.00 51 1010.2
20260503055016 50 0.0 1.0 0.00 0.00 0.00 46 1010.4
20260503054516 50 0 1.0 4.0 0.00 0.00 0.00 45 1010.4
20260503054031 51 0.0 2.0 0.00 0.00 0.00 47 1010.5
20260503053516 51 0.0 0.0 0.00 0.00 0.00 46 1010.5
20260503053016 51 0.0 1.0 0.00 0.00 0.00 44 1010.5
20260503052516 51 315 1.0 5.0 0.00 0.00 0.00 46 1010.7
20260503052016 51 0.0 3.0 0.00 0.00 0.00 45 1010.8
20260503051516 51 0 1.0 6.0 0.00 0.00 0.00 44 1010.8
20260503051016 51 45 1.0 6.0 0.00 0.00 0.00 44 1010.8
20260503050516 51 0.0 3.0 0.00 0.00 0.00 43 1010.8
20260503050016 51 0.0 2.0 0.00 0.00 0.00 44 1010.8
20260503045516 51 22 2.0 4.0 0.00 0.00 0.00 43 1010.8
20260503045016 52 315 2.0 5.0 0.00 0.00 0.00 43 1010.8
20260503044516 52 315 1.0 3.0 0.00 0.00 0.00 44 1011.0
20260503044016 52 0 1.0 3.0 0.00 0.00 0.00 46 1011.0
20260503043516 52 0.0 2.0 0.00 0.00 0.00 45 1011.0
20260503043016 52 0.0 1.0 0.00 0.00 0.00 45 1011.0
20260503042516 52 315 1.0 2.0 0.00 0.00 0.00 44 1011.0
20260503042016 52 315 1.0 4.0 0.00 0.00 0.00 45 1011.1
20260503041516 52 0.0 3.0 0.00 0.00 0.00 44 1011.1
20260503041016 52 0.0 0.0 0.00 0.00 0.00 43 1011.1
20260503040517 52 0.0 1.0 0.00 0.00 0.00 44 1011.1
20260503040016 52 0.0 2.0 0.00 0.00 0.00 43 1011.0
20260503035517 52 337 1.0 5.0 0.00 0.00 0.00 40 1011.0
20260503035017 53 0.0 4.0 0.00 0.00 0.00 41 1010.9
20260503034517 53 0.0 3.0 0.00 0.00 0.00 42 1011.0
20260503034016 53 0.0 5.0 0.00 0.00 0.00 41 1010.9
20260503033517 53 0 1.0 5.0 0.00 0.00 0.00 41 1010.9
20260503033017 53 0.0 0.0 0.00 0.00 0.00 43 1011.0
20260503032517 53 0.0 2.0 0.00 0.00 0.00 43 1010.9